TimeCST,TemperatureF,Dew PointF,Humidity,Sea Level PressureIn,VisibilityMPH,Wind Direction,Wind SpeedMPH,Gust SpeedMPH,PrecipitationIn,Events,Conditions,WindDirDegrees,DateUTC
12:53 AM,21.0,12.0,68,30.28,9.0,WSW,5.8,-,0.00,Snow,Light Snow,240,2012-12-21 06:53:00
1:53 AM,21.0,12.0,68,30.29,9.0,West,8.1,-,0.00,Snow,Light Snow,280,2012-12-21 07:53:00
2:53 AM,19.9,10.9,68,30.31,9.0,WNW,8.1,-,0.00,Snow,Light Snow,300,2012-12-21 08:53:00
3:53 AM,19.0,10.9,71,30.31,9.0,North,6.9,-,0.00,Snow,Light Snow,350,2012-12-21 09:53:00
4:53 AM,17.1,10.0,74,30.32,10.0,WNW,5.8,-,0.00,,Unknown,290,2012-12-21 10:53:00
5:53 AM,16.0,10.0,77,30.33,10.0,West,4.6,-,N/A,,Unknown,270,2012-12-21 11:53:00
6:53 AM,14.0,10.0,84,30.34,10.0,Calm,Calm,-,N/A,,Unknown,0,2012-12-21 12:53:00
7:53 AM,12.9,10.9,92,30.37,10.0,Calm,Calm,-,N/A,,Clear,0,2012-12-21 13:53:00
8:53 AM,14.0,10.9,88,30.38,10.0,Calm,Calm,-,N/A,,Clear,0,2012-12-21 14:53:00
9:53 AM,19.0,14.0,81,30.40,10.0,SSW,3.5,-,N/A,,Unknown,210,2012-12-21 15:53:00
10:53 AM,24.1,16.0,71,30.40,10.0,Calm,Calm,-,N/A,,Clear,0,2012-12-21 16:53:00
11:53 AM,28.0,14.0,56,30.38,10.0,Calm,Calm,-,N/A,,Clear,0,2012-12-21 17:53:00
12:53 PM,28.0,17.1,63,30.35,10.0,Calm,Calm,-,N/A,,Clear,0,2012-12-21 18:53:00
1:53 PM,30.9,18.0,59,30.34,10.0,Calm,Calm,-,N/A,,Clear,0,2012-12-21 19:53:00
2:53 PM,33.1,17.1,52,30.32,10.0,Calm,Calm,-,N/A,,Clear,0,2012-12-21 20:53:00
3:53 PM,32.0,18.0,56,30.33,10.0,Calm,Calm,-,N/A,,Clear,0,2012-12-21 21:53:00
4:53 PM,25.0,19.9,81,30.33,10.0,Calm,Calm,-,N/A,,Clear,0,2012-12-21 22:53:00
5:53 PM,21.0,17.1,85,30.34,10.0,Calm,Calm,-,N/A,,Clear,0,2012-12-21 23:53:00
6:53 PM,19.9,15.1,81,30.33,10.0,Calm,Calm,-,N/A,,Clear,0,2012-12-22 00:53:00
7:53 PM,19.0,15.1,85,30.33,9.0,Calm,Calm,-,N/A,,Clear,0,2012-12-22 01:53:00
8:53 PM,16.0,12.9,88,30.32,9.0,Calm,Calm,-,N/A,,Clear,0,2012-12-22 02:53:00
9:53 PM,18.0,15.1,88,30.31,10.0,Calm,Calm,-,N/A,,Clear,0,2012-12-22 03:53:00
10:53 PM,16.0,12.9,88,30.30,10.0,Calm,Calm,-,N/A,,Clear,0,2012-12-22 04:53:00
11:53 PM,14.0,10.0,84,30.27,8.0,Calm,Calm,-,N/A,,Clear,0,2012-12-22 05:53:00